Location: Recife
(8.0585°S, 34.8848°W)
Time: 11:08:28
(UTC-03:00)

Explorer 11/Cluster Stage 4 - Pass Details

Date: 17 April 2026
Orbit: 463 x 1174 km, 28.8° (Epoch: 20 May)

Event Time Altitude Azimuth Distance (km) Brightness Sun altitude
Rises 06:05:12 0° 257° (WSW) 2,817 8.8 9.7°
Reaches altitude 10° 06:07:30 10° 267° (W) 2,010 8.1 10.3°
Maximum altitude 06:11:46 34° 332° (NNW) 1,168 7.5 11.3°
Drops below altitude 10° 06:16:55 10° 36° (NE) 2,432 10.0 12.5°
Sets 06:19:57 0° 45° (NE) 3,502 10.9 13.3°
